Regional Weather Roundup
Issued by NWS

Home | Current Version | Previous Version | Text Only | Print | Product List | Glossary On
Versions: 1 2 3 4 5 6 7 8 9 10 11 12 13 14 15 16 17 18 19 20 21 22 23 24 25 26 27 28 29 30 31 32 33 34 35 36 37 38 39 40 41 42 43 44 45 46 47 48 49 50
000
ASUS44 KBMX 070210
RWRAL

ALABAMA REGIONAL WEATHER ROUNDUP
NATIONAL WEATHER SERVICE BIRMINGHAM AL
900 PM CDT MON JUL 06 2015

NOTE: "FAIR" INDICATES FEW OR NO CLOUDS BELOW 12,000 FEET
WITH NO SIGNIFICANT WEATHER AND/OR OBSTRUCTIONS TO VISIBILITY.

THE REMARK "TC" DENOTES TEMPERATURE IN DEGREES CELSIUS.

ALZ001>011-014-016>018-020-070300-
NORTH ALABAMA

CITY           SKY/WX    TMP DP  RH WIND       PRES   REMARKS
MUSCLE SHOALS  CLEAR     79  71  76 SW3       30.07R
HUNTSVILLE     PTCLDY    80  72  76 S6        30.07R
DECATUR        CLEAR     80  72  76 SW9       30.08R
HALEYVILLE     FAIR      76  75  96 CALM      30.12R
GADSDEN        CLEAR     84  68  58 SW3       30.07S
$$

ALZ012-013-022-023-030>036-040>044-070300-
WEST CENTRAL ALABAMA

CITY           SKY/WX    TMP DP  RH WIND       PRES   REMARKS
TUSCALOOSA     CLEAR     78  73  84 CALM      30.07S
$$

ALZ015-024>027-033>036-040>044-070300-
CENTRAL ALABAMA

CITY           SKY/WX    TMP DP  RH WIND       PRES   REMARKS
BIRMINGHAM     CLEAR     81  71  71 S6        30.10F
MONTGOMERY     CLEAR     79  74  84 S3        30.09S
SHELBY CO ARPT CLEAR     76  73  91 CALM      30.09F
MAXWELL AFB    CLEAR     78  75  90 CALM      30.08S
GREENVILLE     FAIR      78  73  84 CALM      30.10R
$$

ALZ019-021-028-029-037-038-045>048-070300-
EAST CENTRAL ALABAMA

CITY           SKY/WX    TMP DP  RH WIND       PRES   REMARKS
ANNISTON       CLEAR     75  71  87 CALM      30.09F
ALEXANDER CITY PTCLDY    74  71  88 CALM      30.11S
AUBURN         CLEAR     75  68  78 CALM      30.13S
$$

ALZ051>064-070300-
SOUTHWEST ALABAMA

CITY           SKY/WX    TMP DP  RH WIND       PRES   REMARKS
MOBILE         PTCLDY    79  75  87 S7        30.10S
BROOKLEY FIELD CLEAR     80  74  81 CALM      30.10S
EVERGREEN      CLEAR     77  75  93 CALM      30.10R
$$

ALZ049-050-065>069-070300-
SOUTHEAST ALABAMA

CITY           SKY/WX    TMP DP  RH WIND       PRES   REMARKS
DOTHAN         CLEAR     78  75  90 NW3       30.13F
OZARK          CLEAR     80  72  76 N1        30.10S
TROY           CLEAR     76  74  93 CALM      30.11S
EUFAULA        FAIR      75  73  93 CALM      30.09S
$$


USA.gov is the U.S. government's official web portal to all federal, state and local government web resources and services.